User: anonymous   Login
Location: Mactaquac Provincial Park
(45.9573°N, 66.8897°W)
Time: 19:05:22
(UTC-03:00)
Language:

CENTAUR R/B - Orbit

View from above orbital plane
View from above orbital plane
View from above satellite
View from above satellite

Ground track
Ground track

The orbit data is extracted from the following two-line orbital elements,

1 26906U 01040B   16161.91698806 0.00000100  00000-0  12661-3 0    03
2 26906  63.4595 207.4346 0321000 341.8833  18.1166 13.43993071    02
Epoch (UTC): 09 June 2016 22:00:27
Eccentricity: 0.0321000
inclination: 63.4595°
perigee height: 854 km
apogee height: 1334 km
right ascension of ascending node: 207.4346°
argument of perigee: 341.8833°
revolutions per day: 13.43993071
mean anomaly at epoch: 18.1166°
orbit number at epoch: 0

The dashed part of the orbit path shows where the satellite is in the earth's shadow,  

DLR